Location: ??????
(38.1303°N, 24.0039°E)
Time: 02:25:35
(UTC+00:00)

Meteor 1-28 Rocket - Pass Details

Date: 20 June 2021
Orbit: 502 x 523 km, 97.4° (Epoch: 05 August)

Event Time Altitude Azimuth Distance (km) Brightness Sun altitude
Exits shadow 01:10:59 32° 183° (S) 900 4.0 -17.2°
Maximum altitude 01:12:36 71° 259° (W) 556 3.1 -17.0°
Drops below altitude 10° 01:16:24 10° 344° (NNW) 1,767 6.3 -16.5°
Sets 01:18:31 0° 346° (NNW) 2,660 7.3 -16.3°
